This is the latest recevied weather packets stored in our database for station/object KO4DYK. If no packets are shown the sender has not sent any weather packets the latest 10 day(s).
| Time | Temp. | Humidity | Pressure | Rain* | Wind** | Luminosity | Snow |
|---|---|---|---|---|---|---|---|
| 1777673473 | 17.78° C | 46% | 1019 hPa | 0 mm | - | 172 W/m² | - |
| 1777673171 | 18.33° C | 47% | 1019 hPa | 0 mm | - | 341 W/m² | - |
| 1777672867 | 17.78° C | 51% | 1018.9 hPa | 0 mm | - | 354 W/m² | - |
| 1777672564 | 17.22° C | 50% | 1018.8 hPa | 0 mm | - | 317 W/m² | - |
| 1777672259 | 17.22° C | 49% | 1018.5 hPa | 0 mm | - | 193 W/m² | - |
| 1777671954 | 17.22° C | 50% | 1018.4 hPa | 0 mm | - | 239 W/m² | - |
| 1777671650 | 17.78° C | 50% | 1018.4 hPa | 0 mm | - | 233 W/m² | - |
| 1777671347 | 17.78° C | 51% | 1018.5 hPa | 0 mm | - | 390 W/m² | - |
| 1777671043 | 17.22° C | 54% | 1018.4 hPa | 0 mm | - | 311 W/m² | - |
| 1777670740 | 17.78° C | 53% | 1018.5 hPa | 0 mm | - | 260 W/m² | - |
| 1777670437 | 17.22° C | 54% | 1018.3 hPa | 0 mm | - | 265 W/m² | - |
| 1777670133 | 17.22° C | 52% | 1018.5 hPa | 0 mm | - | 294 W/m² | - |
| 1777669832 | 17.78° C | 52% | 1018.5 hPa | 0 mm | - | 269 W/m² | - |
| 1777669527 | 17.78° C | 53% | 1018.5 hPa | 0 mm | - | 422 W/m² | - |
| 1777669224 | 18.33° C | 52% | 1018.5 hPa | 0 mm | - | 436 W/m² | - |
| 1777668921 | 17.78° C | 54% | 1018.9 hPa | 0 mm | - | 355 W/m² | - |
| 1777668619 | 17.78° C | 55% | 1019 hPa | 0 mm | - | 386 W/m² | - |
| 1777668315 | 17.78° C | 53% | 1019.1 hPa | 0 mm | - | 399 W/m² | - |
| 1777668011 | 17.78° C | 52% | 1019.1 hPa | 0 mm | - | 320 W/m² | - |
| 1777667708 | 17.78° C | 52% | 1019.1 hPa | 0 mm | - | 336 W/m² | - |
| 1777667406 | 17.78° C | 54% | 1019.3 hPa | 0 mm | - | 364 W/m² | - |
| 1777667102 | 17.78° C | 56% | 1019.6 hPa | 0 mm | - | 291 W/m² | - |
| 1777666798 | 17.22° C | 56% | 1019.8 hPa | 0 mm | - | 285 W/m² | - |
| 1777666496 | 17.78° C | 56% | 1019.8 hPa | 0 mm | - | 309 W/m² | - |
| 1777666192 | 17.78° C | 58% | 1019.9 hPa | 0 mm | - | 265 W/m² | - |
* Rain latest hour (hover to see other rain measurements)
** Current wind speed in m/s (hover to see current wind gust speed)